Location: ???????
(52.3000°N, 54.4667°E)
Time: 04:20:27
(UTC+00:00)

SKYMED 2 - Pass Details

Date: 24 January 2020
Orbit: 621 x 623 km, 97.9° (Epoch: 26 February)

Event Time Altitude Azimuth Distance (km) Brightness Sun altitude
Exits shadow 14:04:25 - 20° (NNE) 2,810 6.6 -10.7°
Reaches altitude 10° 14:06:28 10° 27° (NNE) 2,006 5.8 -11.0°
Maximum altitude 14:10:35 40° 98° (E) 927 4.0 -11.6°
Drops below altitude 10° 14:14:40 10° 168° (SSE) 1,989 6.2 -12.2°
Sets 14:16:57 0° 176° (S) 2,890 7.1 -12.6°
